Regional Weather Roundup
Issued by NWS

Home | Current Version | Previous Version | Graphics & Text | Print | Product List | Glossary On
Versions: 1 2 3 4 5 6 7 8 9 10 11 12 13 14 15 16 17 18 19 20 21 22 23 24 25 26 27 28 29 30 31 32 33 34 35 36 37 38 39 40 41 42 43 44 45 46 47 48 49 50
000
ASUS43 KLSX 230207
RWRMO

WEATHER SUMMARY FOR MISSOURI
NATIONAL WEATHER SERVICE SPRINGFIELD MO
900 PM CDT FRI MAY 22 2015

NOTE: "FAIR" INDICATES FEW OR NO CLOUDS BELOW 12,000 FEET WITH NO
       SIGNIFICANT WEATHER AND/OR OBSTRUCTIONS TO VISIBILITY.
       CURRENT SKY AND/OR WEATHER CONDITIONS ARE NOT AVAILABLE FOR
       CHILLICOTHE AND FARMINGTON.

MOZ001>031-035>038-043-044-053-054-230300-
...NORTHERN AND WESTERN MISSOURI...

CITY           SKY/WX    TMP DP  RH WIND       PRES   REMARKS
KANSAS CTY INT CLOUDY    61  50  67 SE8       30.20S
KANSAS C DTWN  CLOUDY    64  49  57 E7        30.19S
LEE`S SUMMIT   CLOUDY    60  52  74 E5        30.21R
ST JOSEPH      CLOUDY    63  49  60 SE10      30.20R
CHILLICOTHE      N/A     65  55  70 CALM      30.23S
KIRKSVILLE     CLOUDY    59  56  89 CALM      30.23F

$$
MOZ066>068-077>081-088>096-101>105-230300-
...SOUTHWEST MISSOURI...

CITY           SKY/WX    TMP DP  RH WIND       PRES   REMARKS
SPRINGFIELD    CLOUDY    62  47  57 SE8       30.21R
JOPLIN         CLOUDY    62  51  67 E6        30.19R

$$
MOZ032>034-039>042-045>050-055>058-069>072-230300-
...CENTRAL MISSOURI...

CITY           SKY/WX    TMP DP  RH WIND       PRES   REMARKS
COLUMBIA       CLOUDY    64  54  69 NE3       30.24R
JEFFERSON CITY CLOUDY    66  52  60 CALM      30.23R
ROLLA          CLOUDY    62  52  69 E6        30.22S
SEDALIA        CLOUDY    64  53  67 E5        30.23S
WHITEMAN AFB   CLOUDY    62  55  77 E2        30.21S
WARRENSBURG    CLOUDY    59  54  82 NE6       30.21S
OSAGE BEACH    CLOUDY    63  54  72 CALM      30.22S

$$
MOZ051-052-059>065-230300-
...EAST CENTRAL MISSOURI...

CITY           SKY/WX    TMP DP  RH WIND       PRES   REMARKS
ST LOUIS INTL  CLOUDY    69  49  48 NW5       30.25R
SPIRIT OF STL  CLOUDY    63  57  81 CALM      30.24R
ST CHARLES     CLOUDY    66  53  63 CALM      30.24R

$$
MOZ072>076-082>087-097>100-106>115-230300-
...SOUTH CENTRAL AND SOUTHEAST MISSOURI...

CITY           SKY/WX    TMP DP  RH WIND       PRES   REMARKS
CAPE GIRARDEAU CLOUDY    64  56  75 CALM      30.26R
FARMINGTON     MOCLDY    63  50  63 CALM      30.30R
POPLAR BLUFF   CLOUDY    63  57  81 CALM      30.25R
WEST PLAINS    CLOUDY    60  48  64 SE5       30.25R

$$



USA.gov is the U.S. government's official web portal to all federal, state and local government web resources and services.